Regional Weather Roundup
Issued by NWS Cleveland, OH

Home | Current Version | Previous Version | Text Only | Print | Product List | Glossary Off
Versions: 1 2 3 4 5 6 7 8 9 10 11 12 13 14 15 16 17 18 19 20 21 22 23 24 25 26 27 28 29 30 31 32 33 34 35 36 37 38 39 40 41 42 43 44 45 46 47 48 49 50

523
ASUS41 KCLE 291810
RWRCLE
OHIO REGIONAL WEATHER ROUNDUP
NATIONAL WEATHER SERVICE CLEVELAND, OH
200 PM EDT FRI APR 29 2016

NOTE: "FAIR" INDICATES FEW OR NO CLOUDS BELOW 12,000 FEET WITH NO
SIGNIFICANT WEATHER AND/OR OBSTRUCTIONS TO VISIBILITY.

OHZ001>008-015>018-024>027-034-035-043-044-291900-
   NORTHWEST OHIO

CITY           SKY/WX    TMP DP  RH WIND       PRES   REMARKS
DEFIANCE       CLOUDY    54  41  61 NW3       30.07R
FINDLAY        CLOUDY    53  41  63 N8        30.05S
TOLEDO EXPRESS PTSUNNY   55  38  52 N10       30.06S
TOLEDO EXEC    PTSUNNY   53  39  59 N9G16     30.07S
LIMA           CLOUDY    50  45  83 NW6       30.06R
$$

OHZ009>014-019>023-028>033-038-089-291900-
   NORTHEAST OHIO

CITY           SKY/WX    TMP DP  RH WIND       PRES   REMARKS
CLE-HOPKINS    CLOUDY    47  43  86 NW10      30.06R FOG
CLE-LAKEFRONT  LGT RAIN  47  43  86 N10       30.03S
CUY CO. ARPT   CLOUDY    50  46  87 N9        30.02F FOG
LORAIN-ELYRIA  CLOUDY    45  40  82 N12       30.05R
ASHTABULA      CLOUDY    44  42  93 N5        30.02F
AKRON-CANTON   CLOUDY    51  48  89 NW8       29.99F FOG
WOOSTER        CLOUDY    49  47  93 NW13      30.02R
MANSFIELD      CLOUDY    48  46  93 NW9       30.03R
YOUNGSTOWN     DRIZZLE   48  46  93 W5        30.00F FOG
$$

OHZ042-051>053-060>062-070>072-077>081-291900-
  SOUTHWEST OHIO

CITY           SKY/WX    TMP DP  RH WIND       PRES   REMARKS
CINC-COVINGTON PTSUNNY   67  48  50 SW7       30.03F
CINC-LUNKEN    MOSUNNY   67  52  58 W9G17     30.02F
HAMILTON       MOSUNNY   66  51  58 NW7G17    30.03F
DAYTON         PTSUNNY   59  51  75 N9        30.05F
WRIGHT-PAT AFB CLOUDY    57  53  85 N9        30.03F
DAYTON GENERAL PTSUNNY   63  50  62 NW9       30.02F
WILMINGTON     PTSUNNY   61  50  67 N10G17    30.01F
$$

OHZ036-037-039>041-045>050-054>059-063>069-073>076-082>088-291900-
  CENTRAL AND SOUTHEAST OHIO

CITY           SKY/WX    TMP DP  RH WIND       PRES   REMARKS
COLUMBUS       CLOUDY    57  48  72 W7        30.03R
OSU AIRPORT    CLOUDY    57  48  72 W9        30.03R
BOLTON FIELD   CLOUDY    57  50  77 MISG      30.04R
RICKENBACK AFB CLOUDY    55  49  80 W6        30.03S
NEWARK         CLOUDY    57  48  72 W7        30.02R
MARION         CLOUDY    52  47  83 NW9       30.05R
LANCASTER      CLOUDY    56  50  80 W9        30.04R
ZANESVILLE     CLOUDY    57  50  77 W5        30.02R
NEW PHILLY     CLOUDY    54  48  80 W6        30.01S
$$




USA.gov is the U.S. government's official web portal to all federal, state and local government web resources and services.